GW4990 Weather Reports


Display with metric or nautical units.
time (UTC)temp
F
wind
direction
speed
MPH
gust
MPH
rain 1hr
in
rain 24hr
in
rain mn
in
humidity
%
barometer
mb
20260509043305 85 90 0.0 0.0 0.00 0.00 0.00 86 1017.0
20260509042804 84 40 0.0 0.0 0.00 0.00 0.00 87 1017.0
20260509042307 84 58 0.0 0.0 0.00 0.00 0.00 86 1017.0
20260509041805 84 71 0.0 0.0 0.00 0.00 0.00 86 1017.0
20260509041304 84 30 0.0 0.0 0.00 0.00 0.00 86 1017.0
20260509040808 84 47 0.0 0.0 0.00 0.00 0.00 87 1017.0
20260509040305 83 80 0.0 0.0 0.00 0.00 0.00 87 1017.0
20260509035804 83 41 0.0 0.0 0.00 0.00 0.00 87 1017.0
20260509035306 83 85 0.0 0.0 0.00 0.00 0.00 87 1017.0
20260509034804 83 81 0.0 0.0 0.00 0.00 0.00 87 1017.0
20260509034304 83 58 0.0 0.0 0.00 0.00 0.00 87 1017.0
20260509033804 82 114 0.0 0.0 0.00 0.00 0.00 87 1017.0
20260509032816 82 57 0.0 0.0 0.00 0.00 0.00 87 1017.0
20260509032306 82 51 0.0 0.0 0.00 0.00 0.00 88 1017.0
20260509031804 82 49 0.0 0.0 0.00 0.00 0.00 89 1017.0
20260509031304 82 1 0.0 0.0 0.00 0.00 0.00 90 1017.0
20260509030804 82 54 0.0 0.0 0.00 0.00 0.00 90 1017.0
20260509030305 81 5 0.0 0.0 0.00 0.00 0.00 92 1017.0
20260509025805 81 59 0.0 0.0 0.00 0.00 0.00 93 1017.0
20260509025306 81 61 0.0 0.0 0.00 0.00 0.00 94 1017.0
20260509024804 81 59 0.0 0.0 0.00 0.00 0.00 95 1017.0
20260509024304 81 45 0.0 0.0 0.00 0.00 0.00 95 1017.0
20260509023805 81 346 0.0 0.0 0.00 0.00 0.00 94 1017.0
20260508181805 84 102 0.0 0.0 0.00 0.00 0.00 87 1016.0
20260508181305 84 112 0.0 0.0 0.00 0.00 0.00 87 1016.0
20260508180805 84 113 0.0 0.0 0.00 0.00 0.00 87 1016.0
20260508180305 84 114 0.0 0.0 0.00 0.00 0.00 87 1016.0
20260508175805 84 89 0.0 0.0 0.00 0.00 0.00 86 1016.0
20260508175306 84 95 0.0 0.0 0.00 0.00 0.00 86 1016.0
20260508174805 84 72 0.0 0.0 0.00 0.00 0.00 86 1016.0
20260508174307 84 75 0.0 0.0 0.00 0.00 0.00 86 1016.0
20260508173806 84 87 0.0 0.0 0.00 0.00 0.00 86 1016.0
20260508173304 84 101 0.0 0.0 0.00 0.00 0.00 85 1016.0
20260508172805 84 103 0.0 0.0 0.00 0.00 0.00 85 1016.0
20260508172307 84 74 0.0 0.0 0.00 0.00 0.00 85 1016.0
20260508171806 84 57 0.0 0.0 0.00 0.00 0.00 85 1017.0
20260508171307 84 64 0.0 0.0 0.00 0.00 0.00 85 1016.0
20260508170805 84 69 0.0 0.0 0.00 0.00 0.00 86 1017.0
20260508170307 84 97 0.0 0.0 0.00 0.00 0.00 85 1017.0
20260508165806 84 99 0.0 0.0 0.00 0.00 0.00 86 1017.0
20260508165306 84 129 0.0 0.0 0.00 0.00 0.00 85 1016.0
20260508164805 84 85 0.0 0.0 0.00 0.00 0.00 85 1016.0
20260508164304 84 107 0.0 0.0 0.00 0.00 0.00 85 1017.0
20260508163807 84 97 0.0 0.0 0.00 0.00 0.00 85 1016.0
20260508163306 84 163 0.0 0.0 0.00 0.00 0.00 85 1016.0
20260508162807 84 88 0.0 0.0 0.00 0.00 0.00 85 1016.0
20260508162307 84 86 0.0 0.0 0.00 0.00 0.00 86 1016.0
20260508161808 84 29 0.0 0.0 0.00 0.00 0.00 87 1016.0
20260508161308 84 82 0.0 0.0 0.00 0.00 0.00 88 1016.0
20260508160806 84 105 0.0 0.0 0.00 0.00 0.00 89 1016.0
20260508160305 84 116 0.0 0.0 0.00 0.00 0.00 89 1016.0
20260508155805 84 94 0.0 0.0 0.00 0.00 0.00 89 1016.0
20260508155306 83 98 0.0 0.0 0.00 0.00 0.00 90 1016.0
20260508154807 84 117 0.0 0.0 0.00 0.00 0.00 91 1016.0
20260508154307 84 82 0.0 0.0 0.00 0.00 0.00 91 1016.0
20260508153807 84 90 0.0 0.0 0.00 0.00 0.00 91 1016.0
20260508153306 83 96 0.0 0.0 0.00 0.00 0.00 91 1016.0
20260508152805 84 60 0.0 0.0 0.00 0.00 0.00 90 1016.0
20260508152306 84 48 0.0 0.0 0.00 0.00 0.00 90 1016.0
20260508151805 84 31 0.0 0.0 0.00 0.00 0.00 89 1016.0
20260508151305 84 121 0.0 0.0 0.00 0.00 0.00 88 1016.0
20260508150806 84 107 0.0 0.0 0.00 0.00 0.00 88 1016.0
20260508150305 84 119 0.0 0.0 0.00 0.00 0.00 88 1016.0
20260508145804 84 61 0.0 0.0 0.00 0.00 0.00 88 1016.0
20260508145307 84 39 0.0 0.0 0.00 0.00 0.00 87 1016.0
20260508144805 84 74 0.0 0.0 0.00 0.00 0.00 86 1016.0
20260508144304 84 147 0.0 0.0 0.00 0.00 0.00 88 1016.0
20260508143804 84 72 0.0 0.0 0.00 0.00 0.00 89 1016.0
20260508143304 84 100 0.0 0.0 0.00 0.00 0.00 89 1016.0
20260508142805 84 82 0.0 0.0 0.00 0.00 0.00 89 1016.0
20260508142306 85 92 0.0 0.0 0.00 0.00 0.00 87 1016.0
20260508141804 85 41 0.0 0.0 0.00 0.00 0.00 85 1016.0
20260508141305 85 103 0.0 0.0 0.00 0.00 0.00 85 1016.0
20260508140805 85 171 0.0 0.0 0.00 0.00 0.00 85 1015.0
20260508140305 85 134 0.0 0.0 0.00 0.00 0.00 85 1015.0
20260508135805 85 51 0.0 0.0 0.00 0.00 0.00 85 1015.0
20260508135306 85 66 0.0 0.0 0.00 0.00 0.00 85 1015.0
20260508134804 85 73 0.0 0.0 0.00 0.00 0.00 85 1015.0
20260508134306 85 46 0.0 0.0 0.00 0.00 0.00 84 1015.0
20260508133805 85 101 0.0 0.0 0.00 0.00 0.00 84 1015.0
20260508133304 85 38 0.0 0.0 0.00 0.00 0.00 83 1015.0
20260508132805 85 77 0.0 0.0 0.00 0.00 0.00 83 1015.0
20260508132306 85 90 0.0 0.0 0.00 0.00 0.00 83 1015.0
20260508131806 85 70 0.0 0.0 0.00 0.00 0.00 83 1015.0
20260508131305 85 91 0.0 0.0 0.00 0.00 0.00 83 1015.0
20260508130804 85 19 0.0 0.0 0.00 0.00 0.00 83 1015.0
20260508130305 85 64 0.0 0.0 0.00 0.00 0.00 84 1015.0
20260508125805 86 75 0.0 0.0 0.00 0.00 0.00 83 1015.0
20260508125306 86 53 0.0 0.0 0.00 0.00 0.00 82 1015.0
20260508124804 86 14 0.0 0.0 0.00 0.00 0.00 82 1014.0
20260508124306 86 78 0.0 0.0 0.00 0.00 0.00 82 1015.0
20260508123804 86 118 0.0 0.0 0.00 0.00 0.00 82 1015.0
20260508123305 86 65 0.0 0.0 0.00 0.00 0.00 81 1015.0
20260508122806 86 75 0.0 0.0 0.00 0.00 0.00 81 1014.0
20260508122307 87 100 0.0 0.0 0.00 0.00 0.00 80 1014.0
20260508121804 87 72 0.0 0.0 0.00 0.00 0.00 79 1014.0
20260508121305 86 114 0.0 0.0 0.00 0.00 0.00 79 1014.0
20260508120804 86 37 0.0 0.0 0.00 0.00 0.00 79 1014.0
20260508120304 87 110 0.0 0.0 0.00 0.00 0.00 78 1014.0
20260508115804 87 70 0.0 0.0 0.00 0.00 0.00 79 1014.0
20260508115306 87 125 0.0 0.0 0.00 0.00 0.00 79 1014.0
20260508114804 87 157 0.0 0.0 0.00 0.00 0.00 78 1014.0
20260508114305 87 130 0.0 0.0 0.00 0.00 0.00 78 1014.0
20260508113805 87 112 0.0 0.0 0.00 0.00 0.00 78 1014.0
20260508113304 87 53 0.0 0.0 0.00 0.00 0.00 78 1014.0
20260508112805 87 129 0.0 0.0 0.00 0.00 0.00 79 1014.0
20260508112307 87 109 0.0 0.0 0.00 0.00 0.00 80 1014.0
20260508111805 87 83 0.0 0.0 0.00 0.00 0.00 78 1014.0
20260508111304 87 27 0.0 0.0 0.00 0.00 0.00 78 1014.0
20260508110805 87 59 0.0 0.0 0.00 0.00 0.00 78 1014.0
20260508110304 89 157 0.0 0.0 0.00 0.00 0.00 77 1014.0
20260508105813 88 49 0.0 0.0 0.00 0.00 0.00 76 1014.0
20260508105306 88 88 0.0 0.0 0.00 0.00 0.00 77 1014.0
20260508104804 88 87 0.0 0.0 0.00 0.00 0.00 75 1014.0
20260508104304 89 53 0.0 0.0 0.00 0.00 0.00 71 1014.0
20260508103805 89 119 0.0 0.0 0.00 0.00 0.00 69 1014.0
20260508103306 90 72 0.0 0.0 0.00 0.00 0.00 67 1014.0
20260508102805 89 112 0.0 0.0 0.00 0.00 0.00 69 1014.0
20260508102306 89 87 0.0 0.0 0.00 0.00 0.00 69 1014.0
20260508101804 89 85 0.0 0.0 0.00 0.00 0.00 69 1014.0
20260508101306 89 73 0.0 0.0 0.00 0.00 0.00 69 1014.0
20260508100807 89 41 0.0 0.0 0.00 0.00 0.00 69 1014.0
20260508100306 90 106 0.0 0.0 0.00 0.00 0.00 70 1014.0
20260508095805 89 71 0.0 0.0 0.00 0.00 0.00 72 1014.0
20260508095307 89 77 0.0 0.0 0.00 0.00 0.00 74 1014.0
20260508094804 89 82 0.0 0.0 0.00 0.00 0.00 74 1014.0
20260508094305 89 47 0.0 0.0 0.00 0.00 0.00 75 1014.0
20260508093805 89 58 0.0 0.0 0.00 0.00 0.00 75 1014.0
20260508093305 89 111 0.0 0.0 0.00 0.00 0.00 74 1014.0
20260508092805 89 353 0.0 0.0 0.00 0.00 0.00 74 1014.0
20260508092312 89 35 0.0 0.0 0.00 0.00 0.00 78 1014.0
20260508091805 89 27 0.0 0.0 0.00 0.00 0.00 76 1014.0
20260508091304 89 104 0.0 0.0 0.00 0.00 0.00 76 1014.0
20260508090804 89 74 0.0 0.0 0.00 0.00 0.00 74 1014.0
20260508090304 89 99 0.0 0.0 0.00 0.00 0.00 74 1014.0
20260508085805 89 79 0.0 0.0 0.00 0.00 0.00 74 1014.0
20260508085307 89 9 0.0 0.0 0.00 0.00 0.00 74 1014.0
20260508084805 88 78 0.0 0.0 0.00 0.00 0.00 75 1014.0
20260508084306 89 72 0.0 0.0 0.00 0.00 0.00 73 1014.0
20260508083805 89 18 0.0 0.0 0.00 0.00 0.00 75 1014.0
20260508083304 88 8 0.0 0.0 0.00 0.00 0.00 75 1014.0
20260508082806 88 106 0.0 0.0 0.00 0.00 0.00 74 1014.0
20260508082306 88 65 0.0 0.0 0.00 0.00 0.00 75 1014.0
20260508081806 89 54 0.0 0.0 0.00 0.00 0.00 75 1014.0
20260508081305 89 74 0.0 0.0 0.00 0.00 0.00 76 1015.0
20260508080804 88 77 0.0 0.0 0.00 0.00 0.00 78 1015.0
20260508080305 88 136 0.0 0.0 0.00 0.00 0.00 77 1015.0
20260508075804 89 146 0.0 0.0 0.00 0.00 0.00 78 1015.0
20260508075308 88 98 0.0 0.0 0.00 0.00 0.00 79 1015.0
20260508074804 88 83 0.0 0.0 0.00 0.00 0.00 78 1015.0
20260508074304 88 42 0.0 0.0 0.00 0.00 0.00 79 1015.0
20260508073806 89 84 0.0 0.0 0.00 0.00 0.00 79 1015.0
20260508073305 87 162 0.0 0.0 0.00 0.00 0.00 80 1015.0
20260508072805 88 65 0.0 0.0 0.00 0.00 0.00 79 1015.0
20260508072307 87 116 0.0 0.0 0.00 0.00 0.00 80 1015.0
20260508071805 87 81 0.0 0.0 0.00 0.00 0.00 80 1015.0
20260508071305 89 86 0.0 0.0 0.00 0.00 0.00 78 1015.0
20260508070808 89 106 0.0 0.0 0.00 0.00 0.00 78 1016.0
20260508070305 88 114 0.0 0.0 0.00 0.00 0.00 79 1016.0
20260508065804 89 131 0.0 0.0 0.00 0.00 0.00 79 1016.0
20260508065307 88 19 0.0 0.0 0.00 0.00 0.00 79 1016.0
20260508064805 88 100 0.0 0.0 0.00 0.00 0.00 80 1016.0
20260508064304 89 74 0.0 0.0 0.00 0.00 0.00 81 1016.0
20260508063804 87 77 0.0 0.0 0.00 0.00 0.00 80 1016.0
20260508063305 89 165 0.0 0.0 0.00 0.00 0.00 81 1016.0
20260508062805 89 44 0.0 0.0 0.00 0.00 0.00 80 1016.0
20260508062306 89 109 0.0 0.0 0.00 0.00 0.00 82 1016.0
20260508061804 88 21 0.0 0.0 0.00 0.00 0.00 81 1016.0
20260508061305 89 129 0.0 0.0 0.00 0.00 0.00 81 1016.0
20260508060804 89 119 0.0 0.0 0.00 0.00 0.00 79 1017.0
20260508060305 89 87 0.0 0.0 0.00 0.00 0.00 79 1016.0
20260508055805 89 65 0.0 0.0 0.00 0.00 0.00 80 1016.0
20260508055306 90 70 0.0 0.0 0.00 0.00 0.00 80 1016.0
20260508054805 89 79 0.0 0.0 0.00 0.00 0.00 81 1016.0
20260508054304 88 165 0.0 0.0 0.00 0.00 0.00 81 1017.0
20260508053804 88 150 0.0 0.0 0.00 0.00 0.00 81 1017.0
20260508053305 88 79 0.0 0.0 0.00 0.00 0.00 81 1017.0
20260508052805 87 92 0.0 0.0 0.00 0.00 0.00 82 1016.0
20260508052307 87 79 0.0 0.0 0.00 0.00 0.00 82 1016.0
20260508051805 87 102 0.0 0.0 0.00 0.00 0.00 84 1016.0
20260508051305 88 64 0.0 0.0 0.00 0.00 0.00 85 1016.0
20260508050805 89 42 0.0 0.0 0.00 0.00 0.00 81 1016.0
20260508050305 89 67 0.0 0.0 0.00 0.00 0.00 79 1016.0
20260508045804 90 67 0.0 0.0 0.00 0.00 0.00 78 1016.0
20260508045307 89 76 0.0 0.0 0.00 0.00 0.00 79 1016.0
20260508044804 89 114 0.0 0.0 0.00 0.00 0.00 80 1016.0
20260508044305 89 77 0.0 0.0 0.00 0.00 0.00 79 1016.0
20260508043805 89 88 0.0 0.0 0.00 0.00 0.00 79 1016.0